<?xml version="1.0" encoding="UTF-8" standalone="no" ?>
<gpx xmlns="http://www.topografix.com/GPX/1/1" xmlns:xsi="http://www.w3.org/2001/XMLSchema-instance" xsi:schemaLocation="http://www.topografix.com/GPX/1/1 http://www.topografix.com/GPX/1/1/gpx.xsd" version="1.1" creator="VisuGPX - https://www.visugpx.com">
  <metadata>
    <name>la boucle du Ventouret </name>
    <desc><![CDATA[départ du Belvédère

comment ...]]></desc>
  </metadata>
  <wpt lat="44.16042" lon="5.34834">
    <ele>1323.5</ele>
    <name><![CDATA[Col de la Frache]]></name>
    <type><![CDATA[col]]></type>
  </wpt>
  <wpt lat="44.15347" lon="5.40343">
    <ele>1209.6</ele>
    <name><![CDATA[La Tune]]></name>
  </wpt>
  <wpt lat="44.15243" lon="5.39236">
    <ele>1303.9</ele>
    <name><![CDATA[Point Haut 1304m]]></name>
  </wpt>
  <wpt lat="44.16031" lon="5.34853">
    <ele>1322.7</ele>
    <name><![CDATA[Col de la Frache R]]></name>
    <type><![CDATA[col]]></type>
  </wpt>
  <trk>
    <name><![CDATA[la boucle du Ventouret ]]></name>
    <desc><![CDATA[comment ...]]></desc>
    <extensions>
      <line xmlns="http://www.topografix.com/GPX/gpx_style/0/2">
        <color>0000FF</color>
        <width>4</width>
      </line>
    </extensions>
    <trkseg>
      <trkpt lat="44.141" lon="5.34417">
        <ele>1326</ele>
        <time>2021-07-03T13:37:53Z</time>
      </trkpt>
      <trkpt lat="44.141" lon="5.34417">
        <ele>1326</ele>
        <time>2021-07-03T13:37:53Z</time>
      </trkpt>
      <trkpt lat="44.14111" lon="5.34425">
        <ele>1326</ele>
        <time>2021-07-03T13:37:53Z</time>
      </trkpt>
      <trkpt lat="44.14133" lon="5.34388">
        <ele>1327</ele>
        <time>2021-07-03T13:37:53Z</time>
      </trkpt>
      <trkpt lat="44.14148" lon="5.34376">
        <ele>1328</ele>
        <time>2021-07-03T13:37:53Z</time>
      </trkpt>
      <trkpt lat="44.14204" lon="5.3436">
        <ele>1330</ele>
        <time>2021-07-03T13:37:53Z</time>
      </trkpt>
      <trkpt lat="44.14296" lon="5.34233">
        <ele>1336</ele>
        <time>2021-07-03T13:37:53Z</time>
      </trkpt>
      <trkpt lat="44.14296" lon="5.34233">
        <ele>1348</ele>
        <time>2021-07-03T13:37:53Z</time>
      </trkpt>
      <trkpt lat="44.14304" lon="5.34225">
        <ele>1349</ele>
        <time>2021-07-03T13:37:53Z</time>
      </trkpt>
      <trkpt lat="44.14333" lon="5.34212">
        <ele>1350</ele>
        <time>2021-07-03T13:37:53Z</time>
      </trkpt>
      <trkpt lat="44.14362" lon="5.34203">
        <ele>1351</ele>
        <time>2021-07-03T13:37:53Z</time>
      </trkpt>
      <trkpt lat="44.14377" lon="5.34194">
        <ele>1353</ele>
        <time>2021-07-03T13:37:53Z</time>
      </trkpt>
      <trkpt lat="44.14385" lon="5.34192">
        <ele>1354</ele>
        <time>2021-07-03T13:37:53Z</time>
      </trkpt>
      <trkpt lat="44.14417" lon="5.34166">
        <ele>1356</ele>
        <time>2021-07-03T13:37:53Z</time>
      </trkpt>
      <trkpt lat="44.14484" lon="5.34075">
        <ele>1360</ele>
        <time>2021-07-03T13:37:53Z</time>
      </trkpt>
      <trkpt lat="44.14501" lon="5.34045">
        <ele>1363</ele>
        <time>2021-07-03T13:37:53Z</time>
      </trkpt>
      <trkpt lat="44.14517" lon="5.34035">
        <ele>1366</ele>
        <time>2021-07-03T13:37:53Z</time>
      </trkpt>
      <trkpt lat="44.14578" lon="5.3402">
        <ele>1369</ele>
        <time>2021-07-03T13:37:53Z</time>
      </trkpt>
      <trkpt lat="44.14597" lon="5.34009">
        <ele>1373</ele>
        <time>2021-07-03T13:37:53Z</time>
      </trkpt>
      <trkpt lat="44.14639" lon="5.34001">
        <ele>1377</ele>
        <time>2021-07-03T13:37:53Z</time>
      </trkpt>
      <trkpt lat="44.1465" lon="5.34005">
        <ele>1380</ele>
        <time>2021-07-03T13:37:53Z</time>
      </trkpt>
      <trkpt lat="44.14665" lon="5.34049">
        <ele>1384</ele>
        <time>2021-07-03T13:37:53Z</time>
      </trkpt>
      <trkpt lat="44.14688" lon="5.34085">
        <ele>1387</ele>
        <time>2021-07-03T13:37:53Z</time>
      </trkpt>
      <trkpt lat="44.1472" lon="5.34115">
        <ele>1390</ele>
        <time>2021-07-03T13:37:53Z</time>
      </trkpt>
      <trkpt lat="44.1473" lon="5.34121">
        <ele>1392</ele>
        <time>2021-07-03T13:37:53Z</time>
      </trkpt>
      <trkpt lat="44.14749" lon="5.34124">
        <ele>1395</ele>
        <time>2021-07-03T13:37:53Z</time>
      </trkpt>
      <trkpt lat="44.14789" lon="5.34115">
        <ele>1397</ele>
        <time>2021-07-03T13:37:53Z</time>
      </trkpt>
      <trkpt lat="44.14995" lon="5.34022">
        <ele>1411</ele>
        <time>2021-07-03T13:37:53Z</time>
      </trkpt>
      <trkpt lat="44.15044" lon="5.34021">
        <ele>1420</ele>
        <time>2021-07-03T13:37:53Z</time>
      </trkpt>
      <trkpt lat="44.15044" lon="5.34021">
        <ele>1441</ele>
        <time>2021-07-03T13:37:53Z</time>
      </trkpt>
      <trkpt lat="44.15044" lon="5.34021">
        <ele>1441</ele>
        <time>2021-07-03T13:37:53Z</time>
      </trkpt>
      <trkpt lat="44.15065" lon="5.34048">
        <ele>1441</ele>
        <time>2021-07-03T13:37:53Z</time>
      </trkpt>
      <trkpt lat="44.15203" lon="5.34149">
        <ele>1437</ele>
        <time>2021-07-03T13:37:53Z</time>
      </trkpt>
      <trkpt lat="44.15313" lon="5.34196">
        <ele>1430</ele>
        <time>2021-07-03T13:37:53Z</time>
      </trkpt>
      <trkpt lat="44.15356" lon="5.34193">
        <ele>1425</ele>
        <time>2021-07-03T13:37:53Z</time>
      </trkpt>
      <trkpt lat="44.15538" lon="5.34118">
        <ele>1413</ele>
        <time>2021-07-03T13:37:53Z</time>
      </trkpt>
      <trkpt lat="44.15557" lon="5.34122">
        <ele>1407</ele>
        <time>2021-07-03T13:37:53Z</time>
      </trkpt>
      <trkpt lat="44.15564" lon="5.34128">
        <ele>1404</ele>
        <time>2021-07-03T13:37:53Z</time>
      </trkpt>
      <trkpt lat="44.15569" lon="5.34136">
        <ele>1401</ele>
        <time>2021-07-03T13:37:53Z</time>
      </trkpt>
      <trkpt lat="44.15603" lon="5.34223">
        <ele>1397</ele>
        <time>2021-07-03T13:37:53Z</time>
      </trkpt>
      <trkpt lat="44.15688" lon="5.34365">
        <ele>1389</ele>
        <time>2021-07-03T13:37:53Z</time>
      </trkpt>
      <trkpt lat="44.15789" lon="5.34447">
        <ele>1379</ele>
        <time>2021-07-03T13:37:53Z</time>
      </trkpt>
      <trkpt lat="44.15854" lon="5.34494">
        <ele>1371</ele>
        <time>2021-07-03T13:37:53Z</time>
      </trkpt>
      <trkpt lat="44.15905" lon="5.34548">
        <ele>1364</ele>
        <time>2021-07-03T13:37:53Z</time>
      </trkpt>
      <trkpt lat="44.15976" lon="5.34666">
        <ele>1355</ele>
        <time>2021-07-03T13:37:53Z</time>
      </trkpt>
      <trkpt lat="44.15976" lon="5.34666">
        <ele>1337</ele>
        <time>2021-07-03T13:37:53Z</time>
      </trkpt>
      <trkpt lat="44.16029" lon="5.34765">
        <ele>1334</ele>
        <time>2021-07-03T13:37:53Z</time>
      </trkpt>
      <trkpt lat="44.16033" lon="5.34782">
        <ele>1332</ele>
        <time>2021-07-03T13:37:53Z</time>
      </trkpt>
      <trkpt lat="44.16032" lon="5.34798">
        <ele>1331</ele>
        <time>2021-07-03T13:37:53Z</time>
      </trkpt>
      <trkpt lat="44.16028" lon="5.34809">
        <ele>1330</ele>
        <time>2021-07-03T13:37:53Z</time>
      </trkpt>
      <trkpt lat="44.16018" lon="5.34826">
        <ele>1328</ele>
        <time>2021-07-03T13:37:53Z</time>
      </trkpt>
      <trkpt lat="44.16032" lon="5.34829">
        <ele>1328</ele>
        <time>2021-07-03T13:37:53Z</time>
      </trkpt>
      <trkpt lat="44.1605" lon="5.34839">
        <ele>1327</ele>
        <time>2021-07-03T13:37:53Z</time>
      </trkpt>
      <trkpt lat="44.1606" lon="5.34841">
        <ele>1326</ele>
        <time>2021-07-03T13:37:53Z</time>
      </trkpt>
      <trkpt lat="44.16072" lon="5.34839">
        <ele>1325</ele>
        <time>2021-07-03T13:37:53Z</time>
      </trkpt>
      <trkpt lat="44.16099" lon="5.34823">
        <ele>1324</ele>
        <time>2021-07-03T13:37:53Z</time>
      </trkpt>
      <trkpt lat="44.16116" lon="5.348">
        <ele>1321</ele>
        <time>2021-07-03T13:37:53Z</time>
      </trkpt>
      <trkpt lat="44.16114" lon="5.34823">
        <ele>1318</ele>
        <time>2021-07-03T13:37:53Z</time>
      </trkpt>
      <trkpt lat="44.16105" lon="5.34861">
        <ele>1316</ele>
        <time>2021-07-03T13:37:53Z</time>
      </trkpt>
      <trkpt lat="44.16102" lon="5.34922">
        <ele>1313</ele>
        <time>2021-07-03T13:37:53Z</time>
      </trkpt>
      <trkpt lat="44.16107" lon="5.34932">
        <ele>1311</ele>
        <time>2021-07-03T13:37:53Z</time>
      </trkpt>
      <trkpt lat="44.16122" lon="5.3503">
        <ele>1306</ele>
        <time>2021-07-03T13:37:53Z</time>
      </trkpt>
      <trkpt lat="44.1613" lon="5.35049">
        <ele>1303</ele>
        <time>2021-07-03T13:37:53Z</time>
      </trkpt>
      <trkpt lat="44.16137" lon="5.35057">
        <ele>1301</ele>
        <time>2021-07-03T13:37:53Z</time>
      </trkpt>
      <trkpt lat="44.16141" lon="5.35041">
        <ele>1298</ele>
        <time>2021-07-03T13:37:53Z</time>
      </trkpt>
      <trkpt lat="44.16138" lon="5.34968">
        <ele>1293</ele>
        <time>2021-07-03T13:37:53Z</time>
      </trkpt>
      <trkpt lat="44.16152" lon="5.34867">
        <ele>1288</ele>
        <time>2021-07-03T13:37:53Z</time>
      </trkpt>
      <trkpt lat="44.16182" lon="5.34806">
        <ele>1282</ele>
        <time>2021-07-03T13:37:53Z</time>
      </trkpt>
      <trkpt lat="44.16223" lon="5.34755">
        <ele>1276</ele>
        <time>2021-07-03T13:37:53Z</time>
      </trkpt>
      <trkpt lat="44.1623" lon="5.34749">
        <ele>1272</ele>
        <time>2021-07-03T13:37:53Z</time>
      </trkpt>
      <trkpt lat="44.16227" lon="5.34769">
        <ele>1268</ele>
        <time>2021-07-03T13:37:53Z</time>
      </trkpt>
      <trkpt lat="44.16206" lon="5.34812">
        <ele>1264</ele>
        <time>2021-07-03T13:37:53Z</time>
      </trkpt>
      <trkpt lat="44.16195" lon="5.34861">
        <ele>1259</ele>
        <time>2021-07-03T13:37:53Z</time>
      </trkpt>
      <trkpt lat="44.16203" lon="5.34971">
        <ele>1252</ele>
        <time>2021-07-03T13:37:53Z</time>
      </trkpt>
      <trkpt lat="44.16217" lon="5.35015">
        <ele>1246</ele>
        <time>2021-07-03T13:37:53Z</time>
      </trkpt>
      <trkpt lat="44.16254" lon="5.35076">
        <ele>1239</ele>
        <time>2021-07-03T13:37:53Z</time>
      </trkpt>
      <trkpt lat="44.16267" lon="5.35119">
        <ele>1233</ele>
        <time>2021-07-03T13:37:53Z</time>
      </trkpt>
      <trkpt lat="44.16271" lon="5.35147">
        <ele>1229</ele>
        <time>2021-07-03T13:37:53Z</time>
      </trkpt>
      <trkpt lat="44.16293" lon="5.35208">
        <ele>1224</ele>
        <time>2021-07-03T13:37:53Z</time>
      </trkpt>
      <trkpt lat="44.16296" lon="5.35234">
        <ele>1219</ele>
        <time>2021-07-03T13:37:53Z</time>
      </trkpt>
      <trkpt lat="44.16364" lon="5.35337">
        <ele>1211</ele>
        <time>2021-07-03T13:37:53Z</time>
      </trkpt>
      <trkpt lat="44.1637" lon="5.35352">
        <ele>1206</ele>
        <time>2021-07-03T13:37:53Z</time>
      </trkpt>
      <trkpt lat="44.16374" lon="5.35392">
        <ele>1204</ele>
        <time>2021-07-03T13:37:53Z</time>
      </trkpt>
      <trkpt lat="44.16486" lon="5.35746">
        <ele>1189</ele>
        <time>2021-07-03T13:37:53Z</time>
      </trkpt>
      <trkpt lat="44.16494" lon="5.35758">
        <ele>1181</ele>
        <time>2021-07-03T13:37:53Z</time>
      </trkpt>
      <trkpt lat="44.16487" lon="5.35767">
        <ele>1176</ele>
        <time>2021-07-03T13:37:53Z</time>
      </trkpt>
      <trkpt lat="44.16478" lon="5.35773">
        <ele>1173</ele>
        <time>2021-07-03T13:37:53Z</time>
      </trkpt>
      <trkpt lat="44.16455" lon="5.35781">
        <ele>1171</ele>
        <time>2021-07-03T13:37:53Z</time>
      </trkpt>
      <trkpt lat="44.16435" lon="5.35796">
        <ele>1170</ele>
        <time>2021-07-03T13:37:53Z</time>
      </trkpt>
      <trkpt lat="44.16392" lon="5.3584">
        <ele>1169</ele>
        <time>2021-07-03T13:37:53Z</time>
      </trkpt>
      <trkpt lat="44.16392" lon="5.3584">
        <ele>1166</ele>
        <time>2021-07-03T13:37:53Z</time>
      </trkpt>
      <trkpt lat="44.16349" lon="5.35864">
        <ele>1166</ele>
        <time>2021-07-03T13:37:53Z</time>
      </trkpt>
      <trkpt lat="44.16301" lon="5.35879">
        <ele>1165</ele>
        <time>2021-07-03T13:37:53Z</time>
      </trkpt>
      <trkpt lat="44.1626" lon="5.35907">
        <ele>1164</ele>
        <time>2021-07-03T13:37:53Z</time>
      </trkpt>
      <trkpt lat="44.16138" lon="5.35916">
        <ele>1163</ele>
        <time>2021-07-03T13:37:53Z</time>
      </trkpt>
      <trkpt lat="44.16125" lon="5.35927">
        <ele>1163</ele>
        <time>2021-07-03T13:37:53Z</time>
      </trkpt>
      <trkpt lat="44.16106" lon="5.3595">
        <ele>1163</ele>
        <time>2021-07-03T13:37:53Z</time>
      </trkpt>
      <trkpt lat="44.16089" lon="5.3596">
        <ele>1163</ele>
        <time>2021-07-03T13:37:53Z</time>
      </trkpt>
      <trkpt lat="44.16078" lon="5.35974">
        <ele>1164</ele>
        <time>2021-07-03T13:37:53Z</time>
      </trkpt>
      <trkpt lat="44.16058" lon="5.36044">
        <ele>1164</ele>
        <time>2021-07-03T13:37:53Z</time>
      </trkpt>
      <trkpt lat="44.16038" lon="5.3608">
        <ele>1168</ele>
        <time>2021-07-03T13:37:53Z</time>
      </trkpt>
      <trkpt lat="44.16006" lon="5.36122">
        <ele>1169</ele>
        <time>2021-07-03T13:37:53Z</time>
      </trkpt>
      <trkpt lat="44.16003" lon="5.36133">
        <ele>1169</ele>
        <time>2021-07-03T13:37:53Z</time>
      </trkpt>
      <trkpt lat="44.15999" lon="5.36173">
        <ele>1170</ele>
        <time>2021-07-03T13:37:53Z</time>
      </trkpt>
      <trkpt lat="44.1599" lon="5.36193">
        <ele>1170</ele>
        <time>2021-07-03T13:37:53Z</time>
      </trkpt>
      <trkpt lat="44.1592" lon="5.36281">
        <ele>1172</ele>
        <time>2021-07-03T13:37:53Z</time>
      </trkpt>
      <trkpt lat="44.15913" lon="5.36295">
        <ele>1173</ele>
        <time>2021-07-03T13:37:53Z</time>
      </trkpt>
      <trkpt lat="44.15914" lon="5.36422">
        <ele>1175</ele>
        <time>2021-07-03T13:37:53Z</time>
      </trkpt>
      <trkpt lat="44.15911" lon="5.36435">
        <ele>1176</ele>
        <time>2021-07-03T13:37:53Z</time>
      </trkpt>
      <trkpt lat="44.15904" lon="5.36451">
        <ele>1177</ele>
        <time>2021-07-03T13:37:53Z</time>
      </trkpt>
      <trkpt lat="44.1587" lon="5.36498">
        <ele>1177</ele>
        <time>2021-07-03T13:37:53Z</time>
      </trkpt>
      <trkpt lat="44.1587" lon="5.36498">
        <ele>1181</ele>
        <time>2021-07-03T13:37:53Z</time>
      </trkpt>
      <trkpt lat="44.15814" lon="5.36579">
        <ele>1182</ele>
        <time>2021-07-03T13:37:53Z</time>
      </trkpt>
      <trkpt lat="44.15811" lon="5.36591">
        <ele>1183</ele>
        <time>2021-07-03T13:37:53Z</time>
      </trkpt>
      <trkpt lat="44.15809" lon="5.3661">
        <ele>1183</ele>
        <time>2021-07-03T13:37:53Z</time>
      </trkpt>
      <trkpt lat="44.15821" lon="5.36728">
        <ele>1185</ele>
        <time>2021-07-03T13:37:53Z</time>
      </trkpt>
      <trkpt lat="44.15814" lon="5.36762">
        <ele>1186</ele>
        <time>2021-07-03T13:37:53Z</time>
      </trkpt>
      <trkpt lat="44.15798" lon="5.36796">
        <ele>1187</ele>
        <time>2021-07-03T13:37:53Z</time>
      </trkpt>
      <trkpt lat="44.1572" lon="5.36908">
        <ele>1189</ele>
        <time>2021-07-03T13:37:53Z</time>
      </trkpt>
      <trkpt lat="44.15713" lon="5.36923">
        <ele>1191</ele>
        <time>2021-07-03T13:37:53Z</time>
      </trkpt>
      <trkpt lat="44.15709" lon="5.36952">
        <ele>1192</ele>
        <time>2021-07-03T13:37:53Z</time>
      </trkpt>
      <trkpt lat="44.15716" lon="5.37048">
        <ele>1193</ele>
        <time>2021-07-03T13:37:53Z</time>
      </trkpt>
      <trkpt lat="44.15715" lon="5.37058">
        <ele>1194</ele>
        <time>2021-07-03T13:37:53Z</time>
      </trkpt>
      <trkpt lat="44.15681" lon="5.37141">
        <ele>1195</ele>
        <time>2021-07-03T13:37:53Z</time>
      </trkpt>
      <trkpt lat="44.15677" lon="5.37179">
        <ele>1197</ele>
        <time>2021-07-03T13:37:53Z</time>
      </trkpt>
      <trkpt lat="44.15699" lon="5.3728">
        <ele>1199</ele>
        <time>2021-07-03T13:37:53Z</time>
      </trkpt>
      <trkpt lat="44.15698" lon="5.37291">
        <ele>1200</ele>
        <time>2021-07-03T13:37:53Z</time>
      </trkpt>
      <trkpt lat="44.15666" lon="5.37417">
        <ele>1202</ele>
        <time>2021-07-03T13:37:53Z</time>
      </trkpt>
      <trkpt lat="44.15667" lon="5.37466">
        <ele>1204</ele>
        <time>2021-07-03T13:37:53Z</time>
      </trkpt>
      <trkpt lat="44.15671" lon="5.37479">
        <ele>1205</ele>
        <time>2021-07-03T13:37:53Z</time>
      </trkpt>
      <trkpt lat="44.15705" lon="5.37536">
        <ele>1206</ele>
        <time>2021-07-03T13:37:53Z</time>
      </trkpt>
      <trkpt lat="44.15732" lon="5.37591">
        <ele>1206</ele>
        <time>2021-07-03T13:37:53Z</time>
      </trkpt>
      <trkpt lat="44.15762" lon="5.37629">
        <ele>1206</ele>
        <time>2021-07-03T13:37:53Z</time>
      </trkpt>
      <trkpt lat="44.15762" lon="5.37629">
        <ele>1206</ele>
        <time>2021-07-03T13:37:53Z</time>
      </trkpt>
      <trkpt lat="44.15811" lon="5.37692">
        <ele>1207</ele>
      </trkpt>
      <trkpt lat="44.1586" lon="5.37756">
        <ele>1207</ele>
        <time>2021-07-03T13:37:53Z</time>
      </trkpt>
      <trkpt lat="44.15865" lon="5.37784">
        <ele>1208</ele>
        <time>2021-07-03T13:37:53Z</time>
      </trkpt>
      <trkpt lat="44.15858" lon="5.37812">
        <ele>1208</ele>
        <time>2021-07-03T13:37:53Z</time>
      </trkpt>
      <trkpt lat="44.15781" lon="5.37964">
        <ele>1210</ele>
        <time>2021-07-03T13:37:53Z</time>
      </trkpt>
      <trkpt lat="44.15774" lon="5.37984">
        <ele>1211</ele>
        <time>2021-07-03T13:37:53Z</time>
      </trkpt>
      <trkpt lat="44.15762" lon="5.38072">
        <ele>1212</ele>
        <time>2021-07-03T13:37:53Z</time>
      </trkpt>
      <trkpt lat="44.1572" lon="5.38189">
        <ele>1210</ele>
      </trkpt>
      <trkpt lat="44.15677" lon="5.38305">
        <ele>1210</ele>
        <time>2021-07-03T13:37:53Z</time>
      </trkpt>
      <trkpt lat="44.15671" lon="5.38314">
        <ele>1210</ele>
        <time>2021-07-03T13:37:53Z</time>
      </trkpt>
      <trkpt lat="44.15665" lon="5.38344">
        <ele>1210</ele>
        <time>2021-07-03T13:37:53Z</time>
      </trkpt>
      <trkpt lat="44.15665" lon="5.38374">
        <ele>1211</ele>
        <time>2021-07-03T13:37:53Z</time>
      </trkpt>
      <trkpt lat="44.15667" lon="5.38387">
        <ele>1212</ele>
        <time>2021-07-03T13:37:53Z</time>
      </trkpt>
      <trkpt lat="44.15693" lon="5.38425">
        <ele>1213</ele>
        <time>2021-07-03T13:37:53Z</time>
      </trkpt>
      <trkpt lat="44.15718" lon="5.38457">
        <ele>1213</ele>
        <time>2021-07-03T13:37:53Z</time>
      </trkpt>
      <trkpt lat="44.15742" lon="5.38503">
        <ele>1214</ele>
        <time>2021-07-03T13:37:53Z</time>
      </trkpt>
      <trkpt lat="44.15774" lon="5.3854">
        <ele>1212</ele>
        <time>2021-07-03T13:37:53Z</time>
      </trkpt>
      <trkpt lat="44.15779" lon="5.38552">
        <ele>1211</ele>
        <time>2021-07-03T13:37:53Z</time>
      </trkpt>
      <trkpt lat="44.15782" lon="5.38581">
        <ele>1210</ele>
        <time>2021-07-03T13:37:53Z</time>
      </trkpt>
      <trkpt lat="44.1578" lon="5.3861">
        <ele>1210</ele>
        <time>2021-07-03T13:37:53Z</time>
      </trkpt>
      <trkpt lat="44.15773" lon="5.38637">
        <ele>1210</ele>
        <time>2021-07-03T13:37:53Z</time>
      </trkpt>
      <trkpt lat="44.15754" lon="5.38672">
        <ele>1210</ele>
        <time>2021-07-03T13:37:53Z</time>
      </trkpt>
      <trkpt lat="44.15754" lon="5.38672">
        <ele>1209</ele>
        <time>2021-07-03T13:37:53Z</time>
      </trkpt>
      <trkpt lat="44.15693" lon="5.38747">
        <ele>1208</ele>
        <time>2021-07-03T13:37:53Z</time>
      </trkpt>
      <trkpt lat="44.15639" lon="5.38806">
        <ele>1208</ele>
      </trkpt>
      <trkpt lat="44.15584" lon="5.38865">
        <ele>1208</ele>
        <time>2021-07-03T13:37:53Z</time>
      </trkpt>
      <trkpt lat="44.15547" lon="5.3895">
        <ele>1208</ele>
        <time>2021-07-03T13:37:53Z</time>
      </trkpt>
      <trkpt lat="44.15494" lon="5.39109">
        <ele>1207</ele>
        <time>2021-07-03T13:37:53Z</time>
      </trkpt>
      <trkpt lat="44.1545" lon="5.39211">
        <ele>1208</ele>
        <time>2021-07-03T13:37:53Z</time>
      </trkpt>
      <trkpt lat="44.15436" lon="5.39277">
        <ele>1209</ele>
        <time>2021-07-03T13:37:53Z</time>
      </trkpt>
      <trkpt lat="44.15437" lon="5.39336">
        <ele>1209</ele>
        <time>2021-07-03T13:37:53Z</time>
      </trkpt>
      <trkpt lat="44.15456" lon="5.39463">
        <ele>1209</ele>
        <time>2021-07-03T13:37:53Z</time>
      </trkpt>
      <trkpt lat="44.15455" lon="5.39476">
        <ele>1209</ele>
        <time>2021-07-03T13:37:53Z</time>
      </trkpt>
      <trkpt lat="44.15452" lon="5.39489">
        <ele>1209</ele>
        <time>2021-07-03T13:37:53Z</time>
      </trkpt>
      <trkpt lat="44.15425" lon="5.39537">
        <ele>1209</ele>
        <time>2021-07-03T13:37:53Z</time>
      </trkpt>
      <trkpt lat="44.15322" lon="5.39651">
        <ele>1209</ele>
        <time>2021-07-03T13:37:53Z</time>
      </trkpt>
      <trkpt lat="44.15308" lon="5.39686">
        <ele>1209</ele>
        <time>2021-07-03T13:37:53Z</time>
      </trkpt>
      <trkpt lat="44.15284" lon="5.3986">
        <ele>1210</ele>
        <time>2021-07-03T13:37:53Z</time>
      </trkpt>
      <trkpt lat="44.15281" lon="5.39917">
        <ele>1208</ele>
        <time>2021-07-03T13:37:53Z</time>
      </trkpt>
      <trkpt lat="44.15277" lon="5.3993">
        <ele>1208</ele>
        <time>2021-07-03T13:37:53Z</time>
      </trkpt>
      <trkpt lat="44.15246" lon="5.39984">
        <ele>1207</ele>
        <time>2021-07-03T13:37:53Z</time>
      </trkpt>
      <trkpt lat="44.15266" lon="5.40027">
        <ele>1206</ele>
        <time>2021-07-03T13:37:53Z</time>
      </trkpt>
      <trkpt lat="44.15281" lon="5.401">
        <ele>1206</ele>
        <time>2021-07-03T13:37:53Z</time>
      </trkpt>
      <trkpt lat="44.15293" lon="5.40108">
        <ele>1207</ele>
        <time>2021-07-03T13:37:53Z</time>
      </trkpt>
      <trkpt lat="44.15351" lon="5.40223">
        <ele>1208</ele>
        <time>2021-07-03T13:37:53Z</time>
      </trkpt>
      <trkpt lat="44.15362" lon="5.40266">
        <ele>1208</ele>
        <time>2021-07-03T13:37:53Z</time>
      </trkpt>
      <trkpt lat="44.1536" lon="5.40337">
        <ele>1209</ele>
        <time>2021-07-03T13:37:53Z</time>
      </trkpt>
      <trkpt lat="44.15325" lon="5.40352">
        <ele>1209</ele>
        <time>2021-07-03T13:37:53Z</time>
      </trkpt>
      <trkpt lat="44.15299" lon="5.40365">
        <ele>1209</ele>
        <time>2021-07-03T13:37:53Z</time>
      </trkpt>
      <trkpt lat="44.15292" lon="5.40359">
        <ele>1209</ele>
        <time>2021-07-03T13:37:53Z</time>
      </trkpt>
      <trkpt lat="44.15268" lon="5.40253">
        <ele>1209</ele>
        <time>2021-07-03T13:37:53Z</time>
      </trkpt>
      <trkpt lat="44.15273" lon="5.40109">
        <ele>1208</ele>
        <time>2021-07-03T13:37:53Z</time>
      </trkpt>
      <trkpt lat="44.15278" lon="5.40094">
        <ele>1208</ele>
        <time>2021-07-03T13:37:53Z</time>
      </trkpt>
      <trkpt lat="44.15266" lon="5.40027">
        <ele>1207</ele>
        <time>2021-07-03T13:37:53Z</time>
      </trkpt>
      <trkpt lat="44.1526" lon="5.40008">
        <ele>1206</ele>
        <time>2021-07-03T13:37:53Z</time>
      </trkpt>
      <trkpt lat="44.15246" lon="5.39984">
        <ele>1205</ele>
        <time>2021-07-03T13:37:53Z</time>
      </trkpt>
      <trkpt lat="44.15251" lon="5.39975">
        <ele>1205</ele>
        <time>2021-07-03T13:37:53Z</time>
      </trkpt>
      <trkpt lat="44.15253" lon="5.39973">
        <ele>1205</ele>
        <time>2021-07-03T13:37:53Z</time>
      </trkpt>
      <trkpt lat="44.15253" lon="5.39897">
        <ele>1207</ele>
        <time>2021-07-03T13:37:53Z</time>
      </trkpt>
      <trkpt lat="44.15232" lon="5.3977">
        <ele>1217</ele>
      </trkpt>
      <trkpt lat="44.15211" lon="5.39642">
        <ele>1233</ele>
        <time>2021-07-03T13:37:53Z</time>
      </trkpt>
      <trkpt lat="44.15214" lon="5.39585">
        <ele>1245</ele>
        <time>2021-07-03T13:37:53Z</time>
      </trkpt>
      <trkpt lat="44.15252" lon="5.39477">
        <ele>1260</ele>
        <time>2021-07-03T13:37:53Z</time>
      </trkpt>
      <trkpt lat="44.15263" lon="5.39453">
        <ele>1268</ele>
        <time>2021-07-03T13:37:53Z</time>
      </trkpt>
      <trkpt lat="44.15265" lon="5.39435">
        <ele>1274</ele>
        <time>2021-07-03T13:37:53Z</time>
      </trkpt>
      <trkpt lat="44.15256" lon="5.39333">
        <ele>1280</ele>
      </trkpt>
      <trkpt lat="44.15246" lon="5.39231">
        <ele>1287</ele>
        <time>2021-07-03T13:37:53Z</time>
      </trkpt>
      <trkpt lat="44.15249" lon="5.3922">
        <ele>1290</ele>
        <time>2021-07-03T13:37:53Z</time>
      </trkpt>
      <trkpt lat="44.15253" lon="5.3921">
        <ele>1293</ele>
        <time>2021-07-03T13:37:53Z</time>
      </trkpt>
      <trkpt lat="44.15308" lon="5.39123">
        <ele>1293</ele>
      </trkpt>
      <trkpt lat="44.15362" lon="5.39036">
        <ele>1292</ele>
        <time>2021-07-03T13:37:53Z</time>
      </trkpt>
      <trkpt lat="44.15392" lon="5.38934">
        <ele>1293</ele>
        <time>2021-07-03T13:37:53Z</time>
      </trkpt>
      <trkpt lat="44.15406" lon="5.38834">
        <ele>1306</ele>
        <time>2021-07-03T13:37:53Z</time>
      </trkpt>
      <trkpt lat="44.15422" lon="5.38798">
        <ele>1307</ele>
        <time>2021-07-03T13:37:53Z</time>
      </trkpt>
      <trkpt lat="44.15422" lon="5.38798">
        <ele>1307</ele>
        <time>2021-07-03T13:37:53Z</time>
      </trkpt>
      <trkpt lat="44.15455" lon="5.38746">
        <ele>1307</ele>
      </trkpt>
      <trkpt lat="44.15488" lon="5.38695">
        <ele>1307</ele>
      </trkpt>
      <trkpt lat="44.15553" lon="5.38591">
        <ele>1308</ele>
        <time>2021-07-03T13:37:53Z</time>
      </trkpt>
      <trkpt lat="44.15569" lon="5.38575">
        <ele>1309</ele>
        <time>2021-07-03T13:37:53Z</time>
      </trkpt>
      <trkpt lat="44.15569" lon="5.38562">
        <ele>1309</ele>
        <time>2021-07-03T13:37:53Z</time>
      </trkpt>
      <trkpt lat="44.15538" lon="5.38531">
        <ele>1309</ele>
        <time>2021-07-03T13:37:53Z</time>
      </trkpt>
      <trkpt lat="44.15534" lon="5.3852">
        <ele>1308</ele>
        <time>2021-07-03T13:37:53Z</time>
      </trkpt>
      <trkpt lat="44.15532" lon="5.38509">
        <ele>1308</ele>
        <time>2021-07-03T13:37:53Z</time>
      </trkpt>
      <trkpt lat="44.15535" lon="5.384">
        <ele>1306</ele>
      </trkpt>
      <trkpt lat="44.15538" lon="5.3829">
        <ele>1303</ele>
        <time>2021-07-03T13:37:53Z</time>
      </trkpt>
      <trkpt lat="44.15549" lon="5.38202">
        <ele>1302</ele>
      </trkpt>
      <trkpt lat="44.15559" lon="5.38114">
        <ele>1304</ele>
        <time>2021-07-03T13:37:53Z</time>
      </trkpt>
      <trkpt lat="44.1559" lon="5.38038">
        <ele>1308</ele>
      </trkpt>
      <trkpt lat="44.1562" lon="5.37961">
        <ele>1313</ele>
        <time>2021-07-03T13:37:53Z</time>
      </trkpt>
      <trkpt lat="44.15638" lon="5.37837">
        <ele>1318</ele>
        <time>2021-07-03T13:37:53Z</time>
      </trkpt>
      <trkpt lat="44.15637" lon="5.3782">
        <ele>1322</ele>
        <time>2021-07-03T13:37:53Z</time>
      </trkpt>
      <trkpt lat="44.15627" lon="5.37794">
        <ele>1324</ele>
        <time>2021-07-03T13:37:53Z</time>
      </trkpt>
      <trkpt lat="44.15586" lon="5.3772">
        <ele>1327</ele>
      </trkpt>
      <trkpt lat="44.15545" lon="5.37646">
        <ele>1330</ele>
        <time>2021-07-03T13:37:53Z</time>
      </trkpt>
      <trkpt lat="44.15545" lon="5.37646">
        <ele>1337</ele>
        <time>2021-07-03T13:37:53Z</time>
      </trkpt>
      <trkpt lat="44.15513" lon="5.37554">
        <ele>1335</ele>
        <time>2021-07-03T13:37:53Z</time>
      </trkpt>
      <trkpt lat="44.15509" lon="5.37536">
        <ele>1333</ele>
        <time>2021-07-03T13:37:53Z</time>
      </trkpt>
      <trkpt lat="44.15515" lon="5.37412">
        <ele>1329</ele>
      </trkpt>
      <trkpt lat="44.15521" lon="5.37288">
        <ele>1327</ele>
        <time>2021-07-03T13:37:53Z</time>
      </trkpt>
      <trkpt lat="44.15483" lon="5.37189">
        <ele>1329</ele>
        <time>2021-07-03T13:37:53Z</time>
      </trkpt>
      <trkpt lat="44.15476" lon="5.37142">
        <ele>1332</ele>
        <time>2021-07-03T13:37:53Z</time>
      </trkpt>
      <trkpt lat="44.15476" lon="5.37118">
        <ele>1334</ele>
        <time>2021-07-03T13:37:53Z</time>
      </trkpt>
      <trkpt lat="44.15484" lon="5.37082">
        <ele>1336</ele>
        <time>2021-07-03T13:37:53Z</time>
      </trkpt>
      <trkpt lat="44.15504" lon="5.37015">
        <ele>1338</ele>
        <time>2021-07-03T13:37:53Z</time>
      </trkpt>
      <trkpt lat="44.15508" lon="5.3691">
        <ele>1339</ele>
        <time>2021-07-03T13:37:53Z</time>
      </trkpt>
      <trkpt lat="44.1555" lon="5.36806">
        <ele>1339</ele>
      </trkpt>
      <trkpt lat="44.15591" lon="5.36701">
        <ele>1337</ele>
        <time>2021-07-03T13:37:53Z</time>
      </trkpt>
      <trkpt lat="44.1559" lon="5.36651">
        <ele>1335</ele>
        <time>2021-07-03T13:37:53Z</time>
      </trkpt>
      <trkpt lat="44.15605" lon="5.36585">
        <ele>1332</ele>
      </trkpt>
      <trkpt lat="44.1562" lon="5.3652">
        <ele>1329</ele>
      </trkpt>
      <trkpt lat="44.15635" lon="5.36454">
        <ele>1326</ele>
      </trkpt>
      <trkpt lat="44.1565" lon="5.36388">
        <ele>1325</ele>
        <time>2021-07-03T13:37:53Z</time>
      </trkpt>
      <trkpt lat="44.1565" lon="5.36388">
        <ele>1321</ele>
        <time>2021-07-03T13:37:53Z</time>
      </trkpt>
      <trkpt lat="44.15669" lon="5.36317">
        <ele>1322</ele>
      </trkpt>
      <trkpt lat="44.15687" lon="5.36245">
        <ele>1324</ele>
        <time>2021-07-03T13:37:53Z</time>
      </trkpt>
      <trkpt lat="44.15687" lon="5.36212">
        <ele>1327</ele>
        <time>2021-07-03T13:37:53Z</time>
      </trkpt>
      <trkpt lat="44.15711" lon="5.36119">
        <ele>1333</ele>
      </trkpt>
      <trkpt lat="44.15736" lon="5.36025">
        <ele>1343</ele>
        <time>2021-07-03T13:37:53Z</time>
      </trkpt>
      <trkpt lat="44.15763" lon="5.35898">
        <ele>1355</ele>
        <time>2021-07-03T13:37:53Z</time>
      </trkpt>
      <trkpt lat="44.15799" lon="5.35806">
        <ele>1365</ele>
      </trkpt>
      <trkpt lat="44.15835" lon="5.35714">
        <ele>1372</ele>
        <time>2021-07-03T13:37:53Z</time>
      </trkpt>
      <trkpt lat="44.15907" lon="5.35638">
        <ele>1377</ele>
        <time>2021-07-03T13:37:53Z</time>
      </trkpt>
      <trkpt lat="44.15953" lon="5.35601">
        <ele>1378</ele>
      </trkpt>
      <trkpt lat="44.15999" lon="5.35563">
        <ele>1379</ele>
        <time>2021-07-03T13:37:53Z</time>
      </trkpt>
      <trkpt lat="44.16021" lon="5.35532">
        <ele>1379</ele>
        <time>2021-07-03T13:37:53Z</time>
      </trkpt>
      <trkpt lat="44.1603" lon="5.35503">
        <ele>1380</ele>
        <time>2021-07-03T13:37:53Z</time>
      </trkpt>
      <trkpt lat="44.1603" lon="5.3549">
        <ele>1379</ele>
        <time>2021-07-03T13:37:53Z</time>
      </trkpt>
      <trkpt lat="44.1602" lon="5.35441">
        <ele>1379</ele>
        <time>2021-07-03T13:37:53Z</time>
      </trkpt>
      <trkpt lat="44.16016" lon="5.35431">
        <ele>1379</ele>
        <time>2021-07-03T13:37:53Z</time>
      </trkpt>
      <trkpt lat="44.16019" lon="5.35416">
        <ele>1378</ele>
        <time>2021-07-03T13:37:53Z</time>
      </trkpt>
      <trkpt lat="44.16019" lon="5.35416">
        <ele>1374</ele>
        <time>2021-07-03T13:37:53Z</time>
      </trkpt>
      <trkpt lat="44.16027" lon="5.35341">
        <ele>1371</ele>
      </trkpt>
      <trkpt lat="44.16034" lon="5.35266">
        <ele>1367</ele>
        <time>2021-07-03T13:37:53Z</time>
      </trkpt>
      <trkpt lat="44.16031" lon="5.35173">
        <ele>1360</ele>
      </trkpt>
      <trkpt lat="44.16028" lon="5.3508">
        <ele>1352</ele>
      </trkpt>
      <trkpt lat="44.16025" lon="5.34986">
        <ele>1344</ele>
      </trkpt>
      <trkpt lat="44.16022" lon="5.34893">
        <ele>1337</ele>
        <time>2021-07-03T13:37:53Z</time>
      </trkpt>
      <trkpt lat="44.16035" lon="5.34832">
        <ele>1334</ele>
        <time>2021-07-03T13:37:53Z</time>
      </trkpt>
      <trkpt lat="44.16018" lon="5.34826">
        <ele>1331</ele>
        <time>2021-07-03T13:37:53Z</time>
      </trkpt>
      <trkpt lat="44.16025" lon="5.34815">
        <ele>1330</ele>
        <time>2021-07-03T13:37:53Z</time>
      </trkpt>
      <trkpt lat="44.16032" lon="5.34798">
        <ele>1329</ele>
        <time>2021-07-03T13:37:53Z</time>
      </trkpt>
      <trkpt lat="44.16033" lon="5.34782">
        <ele>1329</ele>
        <time>2021-07-03T13:37:53Z</time>
      </trkpt>
      <trkpt lat="44.16029" lon="5.34765">
        <ele>1329</ele>
        <time>2021-07-03T13:37:53Z</time>
      </trkpt>
      <trkpt lat="44.15998" lon="5.34711">
        <ele>1329</ele>
      </trkpt>
      <trkpt lat="44.15967" lon="5.34656">
        <ele>1331</ele>
      </trkpt>
      <trkpt lat="44.15936" lon="5.34602">
        <ele>1334</ele>
      </trkpt>
      <trkpt lat="44.15905" lon="5.34548">
        <ele>1337</ele>
        <time>2021-07-03T13:37:53Z</time>
      </trkpt>
      <trkpt lat="44.15863" lon="5.34508">
        <ele>1341</ele>
      </trkpt>
      <trkpt lat="44.15821" lon="5.34468">
        <ele>1345</ele>
        <time>2021-07-03T13:37:53Z</time>
      </trkpt>
      <trkpt lat="44.15755" lon="5.34416">
        <ele>1351</ele>
      </trkpt>
      <trkpt lat="44.15688" lon="5.34365">
        <ele>1357</ele>
        <time>2021-07-03T13:37:53Z</time>
      </trkpt>
      <trkpt lat="44.15669" lon="5.34336">
        <ele>1361</ele>
        <time>2021-07-03T13:37:53Z</time>
      </trkpt>
      <trkpt lat="44.15628" lon="5.34258">
        <ele>1367</ele>
        <time>2021-07-03T13:37:53Z</time>
      </trkpt>
      <trkpt lat="44.15628" lon="5.34258">
        <ele>1382</ele>
        <time>2021-07-03T13:37:53Z</time>
      </trkpt>
      <trkpt lat="44.15603" lon="5.34223">
        <ele>1382</ele>
        <time>2021-07-03T13:37:53Z</time>
      </trkpt>
      <trkpt lat="44.15564" lon="5.34128">
        <ele>1385</ele>
        <time>2021-07-03T13:37:53Z</time>
      </trkpt>
      <trkpt lat="44.15557" lon="5.34122">
        <ele>1387</ele>
        <time>2021-07-03T13:37:53Z</time>
      </trkpt>
      <trkpt lat="44.15545" lon="5.34118">
        <ele>1388</ele>
        <time>2021-07-03T13:37:53Z</time>
      </trkpt>
      <trkpt lat="44.15463" lon="5.34138">
        <ele>1392</ele>
        <time>2021-07-03T13:37:53Z</time>
      </trkpt>
      <trkpt lat="44.15404" lon="5.34167">
        <ele>1396</ele>
      </trkpt>
      <trkpt lat="44.15344" lon="5.34195">
        <ele>1401</ele>
        <time>2021-07-03T13:37:53Z</time>
      </trkpt>
      <trkpt lat="44.15313" lon="5.34196">
        <ele>1405</ele>
        <time>2021-07-03T13:37:53Z</time>
      </trkpt>
      <trkpt lat="44.15225" lon="5.34161">
        <ele>1412</ele>
        <time>2021-07-03T13:37:53Z</time>
      </trkpt>
      <trkpt lat="44.15141" lon="5.341">
        <ele>1420</ele>
      </trkpt>
      <trkpt lat="44.15056" lon="5.34039">
        <ele>1427</ele>
        <time>2021-07-03T13:37:53Z</time>
      </trkpt>
      <trkpt lat="44.15044" lon="5.34021">
        <ele>1431</ele>
        <time>2021-07-03T13:37:53Z</time>
      </trkpt>
      <trkpt lat="44.15007" lon="5.34022">
        <ele>1432</ele>
        <time>2021-07-03T13:37:53Z</time>
      </trkpt>
      <trkpt lat="44.15007" lon="5.34022">
        <ele>1436</ele>
        <time>2021-07-03T13:37:53Z</time>
      </trkpt>
      <trkpt lat="44.14986" lon="5.34024">
        <ele>1435</ele>
        <time>2021-07-03T13:37:53Z</time>
      </trkpt>
      <trkpt lat="44.14927" lon="5.34049">
        <ele>1432</ele>
      </trkpt>
      <trkpt lat="44.14868" lon="5.34074">
        <ele>1428</ele>
      </trkpt>
      <trkpt lat="44.14808" lon="5.34099">
        <ele>1423</ele>
      </trkpt>
      <trkpt lat="44.14749" lon="5.34124">
        <ele>1418</ele>
        <time>2021-07-03T13:37:53Z</time>
      </trkpt>
      <trkpt lat="44.1473" lon="5.34121">
        <ele>1414</ele>
        <time>2021-07-03T13:37:53Z</time>
      </trkpt>
      <trkpt lat="44.14711" lon="5.34109">
        <ele>1411</ele>
        <time>2021-07-03T13:37:53Z</time>
      </trkpt>
      <trkpt lat="44.14681" lon="5.34075">
        <ele>1408</ele>
        <time>2021-07-03T13:37:53Z</time>
      </trkpt>
      <trkpt lat="44.14665" lon="5.34049">
        <ele>1406</ele>
        <time>2021-07-03T13:37:53Z</time>
      </trkpt>
      <trkpt lat="44.14653" lon="5.34013">
        <ele>1403</ele>
        <time>2021-07-03T13:37:53Z</time>
      </trkpt>
      <trkpt lat="44.14645" lon="5.34001">
        <ele>1401</ele>
        <time>2021-07-03T13:37:53Z</time>
      </trkpt>
      <trkpt lat="44.14597" lon="5.34009">
        <ele>1398</ele>
        <time>2021-07-03T13:37:53Z</time>
      </trkpt>
      <trkpt lat="44.14571" lon="5.34024">
        <ele>1394</ele>
        <time>2021-07-03T13:37:53Z</time>
      </trkpt>
      <trkpt lat="44.14517" lon="5.34035">
        <ele>1389</ele>
        <time>2021-07-03T13:37:53Z</time>
      </trkpt>
      <trkpt lat="44.14501" lon="5.34045">
        <ele>1386</ele>
        <time>2021-07-03T13:37:53Z</time>
      </trkpt>
      <trkpt lat="44.14454" lon="5.3411">
        <ele>1382</ele>
      </trkpt>
      <trkpt lat="44.14409" lon="5.34175">
        <ele>1377</ele>
        <time>2021-07-03T13:37:53Z</time>
      </trkpt>
      <trkpt lat="44.14385" lon="5.34192">
        <ele>1373</ele>
        <time>2021-07-03T13:37:53Z</time>
      </trkpt>
      <trkpt lat="44.14369" lon="5.34198">
        <ele>1370</ele>
        <time>2021-07-03T13:37:53Z</time>
      </trkpt>
      <trkpt lat="44.14344" lon="5.3421">
        <ele>1367</ele>
        <time>2021-07-03T13:37:53Z</time>
      </trkpt>
      <trkpt lat="44.1432" lon="5.34217">
        <ele>1364</ele>
        <time>2021-07-03T13:37:53Z</time>
      </trkpt>
      <trkpt lat="44.14304" lon="5.34225">
        <ele>1361</ele>
        <time>2021-07-03T13:37:53Z</time>
      </trkpt>
      <trkpt lat="44.14257" lon="5.3429">
        <ele>1357</ele>
      </trkpt>
      <trkpt lat="44.1421" lon="5.34355">
        <ele>1352</ele>
        <time>2021-07-03T13:37:53Z</time>
      </trkpt>
      <trkpt lat="44.14195" lon="5.34363">
        <ele>1348</ele>
        <time>2021-07-03T13:37:53Z</time>
      </trkpt>
      <trkpt lat="44.14155" lon="5.34373">
        <ele>1344</ele>
        <time>2021-07-03T13:37:53Z</time>
      </trkpt>
      <trkpt lat="44.14136" lon="5.34382">
        <ele>1341</ele>
        <time>2021-07-03T13:37:53Z</time>
      </trkpt>
      <trkpt lat="44.14114" lon="5.34418">
        <ele>1338</ele>
        <time>2021-07-03T13:37:53Z</time>
      </trkpt>
    </trkseg>
  </trk>
</gpx>